GW1095 Weather Reports


time (UTC)temp
F
wind
direction
speed
knots
gust
knots
rain 1hr
in
rain 24hr
in
rain mn
in
humidity
%
barometer
mb
20260502194536 57 265 9.6 17.4 0.00 0.17 0.03 39 1011.8
20260502193035 57 338 8.7 16.5 0.00 0.17 0.03 40 1011.8
20260502191542 57 234 9.6 17.4 0.00 0.17 0.03 39 1011.9
20260502190038 56 250 9.6 18.2 0.00 0.17 0.03 40 1012.0
20260502184549 57 246 6.1 13.9 0.00 0.17 0.03 42 1012.0
20260502183038 56 225 8.7 19.1 0.00 0.17 0.03 43 1012.0
20260502181539 56 233 5.2 16.5 0.00 0.17 0.03 46 1011.7
20260502163032 54 300 2.6 11.3 0.00 0.17 0.03 57 1012.3
20260502161538 53 300 2.6 12.2 0.00 0.17 0.03 61 1012.5
20260502151536 51 260 2.6 9.6 0.00 0.17 0.03 66 1012.7
20260502123045 44 248 2.6 10.4 0.00 0.17 0.03 86 1012.9
20260502121542 44 252 5.2 13.9 0.00 0.17 0.03 87 1012.9
20260502114537 43 247 5.2 12.2 0.00 0.17 0.03 88 1012.7
20260502113038 43 244 5.2 8.7 0.00 0.17 0.03 88 1012.5
20260502111628 43 244 6.1 11.3 0.00 0.17 0.03 88 1012.4
20260502110037 43 277 5.2 11.3 0.00 0.17 0.03 88 1012.4
20260502104536 43 257 4.3 9.6 0.00 0.17 0.03 88 1012.0
20260502103052 44 290 3.5 10.4 0.00 0.17 0.03 87 1011.9
20260502101537 44 209 2.6 8.7 0.00 0.17 0.03 87 1011.8
20260502070037 46 0 0.0 3.5 0.00 0.17 0.03 86 1011.5
20260502064539 46 167 1.7 3.5 0.00 0.17 0.03 86 1011.6
20260502063044 46 0 0.0 0.0 0.00 0.17 0.03 86 1011.6
20260502061537 46 0 0.0 0.0 0.00 0.17 0.03 86 1011.5
20260502060037 46 0 0.0 0.0 0.00 0.17 0.03 86 1011.8
20260502054542 47 167 0.0 2.6 0.02 0.17 0.03 85 1011.9
20260502053038 47 167 0.9 3.5 0.02 0.17 0.03 84 1011.9
20260502051536 47 0 0.0 2.6 0.02 0.17 0.03 83 1012.1
20260502050036 47 167 0.0 2.6 0.03 0.17 0.03 81 1012.2
20260502044534 47 0 0.0 0.0 0.05 0.15 0.01 81 1012.2
20260502043039 48 0 0.0 2.6 0.08 0.15 0.01 81 1011.9
20260502041538 48 167 0.9 3.5 0.10 0.15 0.01 79 1012.1
20260502040037 49 167 2.6 5.2 0.11 0.14 0.00 77 1012.0
20260502034537 49 195 2.6 5.2 0.09 0.10 0.10 74 1012.3
20260502033044 50 194 2.6 4.3 0.07 0.07 0.07 72 1012.2
20260502031535 51 217 1.7 3.5 0.05 0.05 0.05 69 1012.1
20260502030037 52 240 1.7 4.3 0.03 0.03 0.03 67 1012.1
20260502024535 52 240 1.7 6.1 0.01 0.01 0.01 64 1012.1
20260502023040 53 237 3.5 7.8 0.00 0.00 0.00 60 1012.1
20260502021535 53 261 3.5 10.4 0.00 0.00 0.00 56 1011.9
20260502020038 53 229 1.7 3.5 0.00 0.00 0.00 53 1012.0
20260502014535 53 0 0.0 1.7 0.00 0.00 0.00 52 1011.8
20260502013044 54 0 0.0 0.0 0.00 0.00 0.00 50 1011.7
20260502011537 54 0 0.0 1.7 0.00 0.00 0.00 48 1011.6
20260502010045 55 261 1.7 2.6 0.00 0.00 0.00 47 1011.6
20260502004552 55 261 0.0 2.6 0.00 0.00 0.00 46 1011.4
20260502003034 55 247 1.7 5.2 0.00 0.00 0.00 45 1011.4
20260502001537 56 264 0.9 6.1 0.00 0.00 0.00 45 1011.3
20260502000049 56 0 2.6 8.7 0.00 0.00 0.00 44 1011.3
20260501234536 56 313 2.6 10.4 0.00 0.00 0.00 43 1011.0
20260501233040 57 294 2.6 10.4 0.00 0.00 0.00 42 1010.8
20260501231540 57 264 2.6 9.6 0.00 0.00 0.00 42 1010.8
20260501230032 58 300 2.6 10.4 0.00 0.00 0.00 40 1010.6
20260501224540 58 242 2.6 9.6 0.00 0.00 0.00 40 1010.4
20260501223037 59 315 1.7 7.8 0.00 0.00 0.00 41 1010.2
20260501221536 59 267 1.7 8.7 0.00 0.00 0.00 40 1010.1
20260501220050 59 273 3.5 11.3 0.00 0.00 0.00 39 1010.0
20260501214538 60 242 5.2 11.3 0.00 0.00 0.00 39 1010.0
20260501213054 60 249 2.6 12.2 0.00 0.00 0.00 37 1010.0
20260501211537 60 244 5.2 11.3 0.00 0.00 0.00 38 1010.0
20260501210036 61 246 7.0 14.8 0.00 0.00 0.00 35 1010.0
20260501204537 62 275 6.1 16.5 0.00 0.00 0.00 33 1010.1
20260501203037 63 313 6.1 17.4 0.00 0.00 0.00 33 1010.0
20260501201537 62 265 4.3 11.3 0.00 0.00 0.00 35 1010.0
20260501200037 62 283 7.8 21.7 0.00 0.00 0.00 34 1010.0